Regional Weather Roundup
Issued by NWS

Home | Current Version | Previous Version | Text Only | Print | Product List | Glossary Off
Versions: 1 2 3 4 5 6 7 8 9 10 11 12 13 14 15 16 17 18 19 20 21 22 23 24 25 26 27 28 29 30 31 32 33 34 35 36 37 38 39 40 41 42 43 44 45 46 47 48 49 50

039
ASUS44 KJAN 191203
RWRMS

MISSISSIPPI HOURLY WEATHER ROUNDUP
NATIONAL WEATHER SERVICE JACKSON MS
700 AM CDT TUE AUG 19 2014

NOTE: "FAIR: INDICATES FEW OR NO CLOUDS BELOW 12,000 FEET WITH NO
SIGNIFICANT WEATHER AND/OR OBSTRUCTIONS TO VISIBILITY.

MSZ001>002-007>008-010>013-018>021-025>028-034>036-191300-
NORTHWEST MISSISSIPPI

CITY           SKY/WX    TMP DP  RH WIND       PRES   REMARKS
CLARKSDALE     FAIR      68  68 100 CALM      29.92R
CLEVELAND      FAIR      69  69 100 S3        29.92R
GREENWOOD      CLEAR     69  67  93 CALM      29.93R
6HR MIN TEMP:  69; 6HR MAX TEMP:  74;

GREENVILLE       N/A    N/A N/A N/A MISG      29.92R
6HR MIN TEMP:  69; 6HR MAX TEMP:  73;

GRENADA        FAIR      68  68 100 CALM      29.93S
OLIVE BRANCH   PTCLDY    70  70 100 SW5       29.91R
OXFORD         FAIR      68  66  94 CALM      29.94R
TUNICA         SUNNY     70  68  94 S3        29.92R
$$

MSZ003>006-009-014>017-022>024-029>033-037>039-191300-
NORTHEAST MISSISSIPPI

CITY           SKY/WX    TMP DP  RH WIND       PRES   REMARKS
BELMONT        PTSUNNY   72  71  98 SW6       29.93R
COLUMBUS AFB   MOCLDY    73  71  94 CALM      29.93R
6HR MIN TEMP:  72; 6HR MAX TEMP:  75; 6HR PCP:  0.11;

CORINTH        CLOUDY    72  72 100 CALM      29.91S FOG
GOLDN TRIANGLE MOCLDY    73  68  83 MISG      29.93R
STARKVILLE     FAIR      72  68  88 CALM      29.94R
TUPELO         CLEAR     73  69  87 CALM      29.92R
6HR MIN TEMP:  72; 6HR MAX TEMP:  73;

$$

MSZ040-058-191300-
CENTRAL MISSISSIPPI

CITY           SKY/WX    TMP DP  RH WIND       PRES   REMARKS
JACKSON INTL   PTCLDY    76  74  93 S5        29.97R
6HR MIN TEMP:  75; 6HR MAX TEMP:  79;

JACKSON HAWKNS PTCLDY    76  73  91 S5        29.97R FOG
6HR MIN TEMP:  75; 6HR MAX TEMP:  80; 6HR PCP: TRACE;

MERIDIAN KEY   MOCLDY    75  73  93 S8        29.96R
6HR MIN TEMP:  72; 6HR MAX TEMP:  75; 6HR PCP:  0.02;

MERIDIAN NAS   MOCLDY    76  73  91 SW7       29.94R
6HR MIN TEMP:  75; 6HR MAX TEMP:  76;

RAYMOND        FAIR      73  68  83 CALM      29.97R HAZE
VICKSBURG      PTCLDY    75  74  96 S3        29.96R
6HR MIN TEMP:  74; 6HR MAX TEMP:  77; 6HR PCP:  0.08;

$$

MSZ059>079-191300-
SOUTH MISSISSIPPI

CITY           SKY/WX    TMP DP  RH WIND       PRES   REMARKS
BROOKHAVEN     CLOUDY    73  73 100 CALM      30.01R FOG
COLUMBIA       FAIR      72  72 100 MISG      29.98R FOG
HATTIESBURG    CLEAR     75  73  93 S3        30.00R
6HR MIN TEMP:  75; 6HR MAX TEMP:  80;

MCCOMB         CLOUDY    74  72  93 CALM      29.99R FOG
6HR MIN TEMP:  73; 6HR MAX TEMP:  76;

NATCHEZ        PTCLDY    75  73  94 S3        29.98R
6HR MIN TEMP:  75; 6HR MAX TEMP:  77;

PINE BELT      MOCLDY    73  72  94 CALM      30.01R
6HR MIN TEMP:  73; 6HR MAX TEMP:  75; 6HR PCP:  0.01;

$$

MSZ080>082-191300-
COASTAL MISSISSIPPI

CITY           SKY/WX    TMP DP  RH WIND       PRES   REMARKS
BILOXI         CLEAR     80  77  89 SW3       29.98R
6HR MIN TEMP:  80; 6HR MAX TEMP:  84;

PASCAGOULA     CLEAR     76  76 100 CALM      29.98R FOG
6HR MIN TEMP:  75; 6HR MAX TEMP:  82;

GULFPORT       CLEAR     78  76  93 CALM      29.98R
6HR MIN TEMP:  77; 6HR MAX TEMP:  83;

$$



USA.gov is the U.S. government's official web portal to all federal, state and local government web resources and services.